THORAD AGENA D DEB, 4645

Orbit data source: Space-Track

THORAD AGENA D DEB, 4645 is space debris in SSO originally from a launch on Wed, 08 Apr 1970 UTC launched from the Air Force Western Test Range (AFWTR). Debris objects in space refer to the collection of defunct objects orbiting the Earth. Examples of debris include non-operational satellites, rocket bodies, and fragments generated from explosions, collisions, or faulty payload assembly.

Loading next visibility...
THORAD AGENA D DEB details
Identifier
4645, 1970-025AD
Orbit
SSO
Last TLE update16 hours ago
Origin
Flag of USGSFC (US)
ManufacturerUnknown
MissionSpacecraft
Bus & MotorUnknown
MassUnknown
Launch date (UTC)
1970-04-08 (55 years ago)
Launch vehicleUnknown
Launch site
Air Force Western Test Range (AFWTR)
Object type
Payload
Rocket body
Debris
Shape & HBRUnknown
Radar Cross SectionSmall (<0.1 m²)

Expand to show TLE details & history

TLE from 16 hours ago
0 THORAD AGENA D DEB
1 04645U 70025AD  25046.82849817  .00000207  00000-0  78222-3 0  9990
2 04645  99.9319 144.8267 0329092 238.3725 248.9282 12.86490702572882
Epoch: 2025-02-15T19:53Z
Definitive object data (Epoch: 2025-02-15T19:53:02.241Z)
Latitude54.99737°
Longitude-105.09544°
Altitude1,422.631 km
Speed7.109 km/s
True Right ascension22h 36m 56s
True Declination54° 50' 58"
Sunlit
Object was in daylight at TLE epoch
Visualization TLE readout
Latitude25.86376°
Longitude56.25578°
Altitude1,534.12 km
Speed7.001 km/s
Apparent Right ascension06h 55m 53s
Apparent Declination-4° 27' 33"
Sunlit
Object is in full shadow
Visualization observer readout
Local Sidereal Time14:55:20
Azimuth286.67° WNW
Elevation-25.508°
Doppler factor1
Orbital elements
Apogee altitude1,565.983 km
Perigee altitude1,059.772 km
Semi-major axis7,691.015 km
Eccentricity0.0329092
Inclination99.9319°
RAAN144.8267°
Arg. of periapsis238.3725°
True anomaly245.46268°
Mean anomaly248.9282°
Eccentric anomaly247.1901°
Mean motion3.21786 °/min
BSTAR0.00078222
Orbital period111.88 mins
Loading maneuver chart data...

THORAD AGENA D DEB Visibility forecast

Observer location: undefined°, undefined

Span
Click to sort rows by Start time (UTC) header in descending order
Start Az.
Max El. time (UTC)
Max El. Az.
Max El.
End time (UTC)
End Az.
13 mins2025-02-16 18:15:51.980Z34.12° NE2025-02-16 18:22:51.980Z100.625° ESE29.232°2025-02-16 18:28:51.980Z156.698° SSE
13 mins2025-02-16 20:06:51.980Z0.438° NNE2025-02-16 20:12:51.980Z293.471° NW37.205°2025-02-16 20:19:51.980Z222.776° SW
14 mins2025-02-17 04:56:51.980Z116.429° SE2025-02-17 05:03:51.980Z55.314° ENE29.432°2025-02-17 05:10:51.980Z1.813° NNE
16 mins2025-02-17 06:45:51.980Z182.018° SSW2025-02-17 06:52:51.980Z253.954° W41.248°2025-02-17 07:01:51.980Z338.481° N
|